Time,TemperatureF,DewpointF,PressureIn,WindDirection,WindDirectionDegrees,WindSpeedMPH,WindSpeedGustMPH,Humidity,HourlyPrecipIn,Conditions,Clouds,dailyrainin,SolarRadiationWatts/m^2,SoftwareType,DateUTC
2013-11-12 00:02:00,70.0,33.0,-100.00,North,7,5.0,8.0,25,0.00,,,0.00,0.000000,,2013-11-12 08:02:00,
2013-11-12 00:11:00,70.0,33.0,-100.00,North,7,5.0,8.0,25,0.00,,,0.00,0.000000,,2013-11-12 08:11:00,
2013-11-12 00:21:00,70.0,33.0,-100.00,North,7,5.0,8.0,25,0.00,,,0.00,0.000000,,2013-11-12 08:21:00,
2013-11-12 00:52:00,74.0,29.0,-100.00,NNW,334,10.0,15.0,19,0.00,,,0.00,0.000000,,2013-11-12 08:52:00,
2013-11-12 01:02:00,74.0,29.0,-100.00,NNW,334,10.0,15.0,19,0.00,,,0.00,0.000000,,2013-11-12 09:02:00,
2013-11-12 01:11:00,74.0,29.0,-100.00,NNW,334,10.0,15.0,19,0.00,,,0.00,0.000000,,2013-11-12 09:11:00,
2013-11-12 01:21:00,74.0,29.0,-100.00,NNW,334,10.0,15.0,19,0.00,,,0.00,0.000000,,2013-11-12 09:21:00,
2013-11-12 01:53:00,74.0,28.0,-100.00,NNW,337,11.0,14.0,18,0.00,,,-99.99,0.000000,,2013-11-12 09:53:00,
2013-11-12 02:03:00,74.0,28.0,-100.00,NNW,337,11.0,14.0,18,0.00,,,-99.99,0.000000,,2013-11-12 10:03:00,
2013-11-12 02:12:00,74.0,28.0,-100.00,NNW,337,11.0,14.0,18,0.00,,,-99.99,0.000000,,2013-11-12 10:12:00,
2013-11-12 02:23:00,74.0,28.0,-100.00,NNW,337,11.0,14.0,18,0.00,,,-99.99,0.000000,,2013-11-12 10:23:00,
2013-11-12 02:53:00,68.0,32.0,-100.00,NNE,16,6.0,15.0,26,0.00,,,0.00,0.000000,,2013-11-12 10:53:00,
2013-11-12 03:02:00,68.0,32.0,-100.00,NNE,16,6.0,15.0,26,0.00,,,0.00,0.000000,,2013-11-12 11:02:00,
2013-11-12 03:12:00,68.0,32.0,-100.00,NNE,16,6.0,15.0,26,0.00,,,0.00,0.000000,,2013-11-12 11:12:00,
2013-11-12 03:22:00,68.0,32.0,-100.00,NNE,16,6.0,15.0,26,0.00,,,0.00,0.000000,,2013-11-12 11:22:00,
2013-11-12 04:52:00,67.0,32.0,-100.00,North,4,7.0,10.0,27,-99.99,,,0.00,0.000000,,2013-11-12 12:52:00,
2013-11-12 05:01:00,67.0,32.0,-100.00,North,4,7.0,10.0,27,-99.99,,,0.00,0.000000,,2013-11-12 13:01:00,
2013-11-12 05:11:00,67.0,32.0,-100.00,North,4,7.0,10.0,27,-99.99,,,0.00,0.000000,,2013-11-12 13:11:00,
2013-11-12 05:22:00,67.0,32.0,-100.00,North,4,7.0,10.0,27,-99.99,,,0.00,0.000000,,2013-11-12 13:22:00,
2013-11-12 05:52:00,65.0,32.0,-100.00,North,5,8.0,11.0,29,0.00,,,0.00,0.000000,,2013-11-12 13:52:00,
2013-11-12 06:02:00,65.0,32.0,-100.00,North,5,8.0,11.0,29,0.00,,,0.00,0.000000,,2013-11-12 14:02:00,
2013-11-12 06:11:00,65.0,32.0,-100.00,North,5,8.0,11.0,29,0.00,,,0.00,0.000000,,2013-11-12 14:11:00,
2013-11-12 06:21:00,65.0,32.0,-100.00,North,5,8.0,11.0,29,0.00,,,0.00,0.000000,,2013-11-12 14:21:00,
2013-11-12 06:52:00,64.0,33.0,-100.00,NNE,13,8.0,11.0,31,0.00,,,-99.99,12.000000,,2013-11-12 14:52:00,
2013-11-12 07:02:00,64.0,33.0,-100.00,NNE,13,8.0,11.0,31,0.00,,,-99.99,12.000000,,2013-11-12 15:02:00,
2013-11-12 07:11:00,64.0,33.0,-100.00,NNE,13,8.0,11.0,31,0.00,,,-99.99,12.000000,,2013-11-12 15:11:00,
2013-11-12 07:21:00,64.0,33.0,-100.00,NNE,13,8.0,11.0,31,0.00,,,-99.99,12.000000,,2013-11-12 15:21:00,
2013-11-12 07:53:00,71.0,27.0,-100.00,North,357,12.0,18.0,19,0.00,,,0.00,127.000000,,2013-11-12 15:53:00,
2013-11-12 08:03:00,71.0,27.0,-100.00,North,357,12.0,18.0,19,0.00,,,0.00,127.000000,,2013-11-12 16:03:00,
2013-11-12 08:12:00,71.0,27.0,-100.00,North,357,12.0,18.0,19,0.00,,,0.00,127.000000,,2013-11-12 16:12:00,
2013-11-12 08:23:00,71.0,27.0,-100.00,North,357,12.0,18.0,19,0.00,,,0.00,127.000000,,2013-11-12 16:23:00,
2013-11-12 08:53:00,74.0,35.0,-100.00,NNE,16,4.0,17.0,24,0.00,,,0.00,329.000000,,2013-11-12 16:53:00,
2013-11-12 09:02:00,74.0,35.0,-100.00,NNE,16,4.0,17.0,24,0.00,,,0.00,329.000000,,2013-11-12 17:02:00,
2013-11-12 09:12:00,74.0,35.0,-100.00,NNE,16,4.0,17.0,24,0.00,,,0.00,329.000000,,2013-11-12 17:12:00,
2013-11-12 09:22:00,74.0,35.0,-100.00,NNE,16,4.0,17.0,24,0.00,,,0.00,329.000000,,2013-11-12 17:22:00,
2013-11-12 09:52:00,80.0,27.0,-100.00,NW,325,10.0,16.0,14,0.00,,,0.00,493.000000,,2013-11-12 17:52:00,
2013-11-12 10:01:00,80.0,27.0,-100.00,NW,325,10.0,16.0,14,0.00,,,0.00,493.000000,,2013-11-12 18:01:00,
2013-11-12 10:12:00,80.0,27.0,-100.00,NW,325,10.0,16.0,14,0.00,,,0.00,493.000000,,2013-11-12 18:12:00,
2013-11-12 10:22:00,80.0,27.0,-100.00,NW,325,10.0,16.0,14,0.00,,,0.00,493.000000,,2013-11-12 18:22:00,
2013-11-12 10:52:00,83.0,27.0,-100.00,NW,325,11.0,18.0,13,0.00,,,0.00,699.000000,,2013-11-12 18:52:00,
2013-11-12 11:01:00,83.0,27.0,-100.00,NW,325,11.0,18.0,13,0.00,,,0.00,699.000000,,2013-11-12 19:01:00,
2013-11-12 11:11:00,83.0,27.0,-100.00,NW,325,11.0,18.0,13,0.00,,,0.00,699.000000,,2013-11-12 19:11:00,
2013-11-12 11:21:00,83.0,27.0,-100.00,NW,325,11.0,18.0,13,0.00,,,0.00,699.000000,,2013-11-12 19:21:00,
2013-11-12 11:52:00,85.0,27.0,-100.00,NNW,329,11.0,17.0,12,0.00,,,0.00,691.000000,,2013-11-12 19:52:00,
2013-11-12 12:01:00,85.0,27.0,-100.00,NNW,329,11.0,17.0,12,0.00,,,0.00,691.000000,,2013-11-12 20:01:00,
2013-11-12 12:11:00,85.0,27.0,-100.00,NNW,329,11.0,17.0,12,0.00,,,0.00,691.000000,,2013-11-12 20:11:00,
2013-11-12 12:21:00,85.0,27.0,-100.00,NNW,329,11.0,17.0,12,0.00,,,0.00,691.000000,,2013-11-12 20:21:00,
2013-11-12 12:52:00,87.0,28.0,-100.00,NW,320,14.0,20.0,12,0.00,,,0.00,694.000000,,2013-11-12 20:52:00,
2013-11-12 13:02:00,87.0,28.0,-100.00,NW,320,14.0,20.0,12,0.00,,,0.00,694.000000,,2013-11-12 21:02:00,
2013-11-12 13:12:00,87.0,28.0,-100.00,NW,320,14.0,20.0,12,0.00,,,0.00,694.000000,,2013-11-12 21:12:00,
2013-11-12 13:22:00,87.0,28.0,-100.00,NW,320,14.0,20.0,12,0.00,,,0.00,694.000000,,2013-11-12 21:22:00,
2013-11-12 13:54:00,87.0,30.0,-100.00,NW,326,12.0,21.0,13,0.00,,,0.00,488.000000,,2013-11-12 21:54:00,
2013-11-12 14:04:00,87.0,30.0,-100.00,NW,326,12.0,21.0,13,0.00,,,0.00,488.000000,,2013-11-12 22:04:00,
2013-11-12 14:14:00,87.0,30.0,-100.00,NW,326,12.0,21.0,13,0.00,,,0.00,488.000000,,2013-11-12 22:14:00,
2013-11-12 14:24:00,87.0,30.0,-100.00,NW,326,12.0,21.0,13,0.00,,,0.00,488.000000,,2013-11-12 22:24:00,
2013-11-12 14:54:00,87.0,30.0,-100.00,NNW,331,13.0,18.0,13,0.00,,,0.00,303.000000,,2013-11-12 22:54:00,
2013-11-12 15:03:00,87.0,30.0,-100.00,NNW,331,13.0,18.0,13,0.00,,,0.00,303.000000,,2013-11-12 23:03:00,
2013-11-12 15:12:00,87.0,30.0,-100.00,NNW,331,13.0,18.0,13,0.00,,,0.00,303.000000,,2013-11-12 23:12:00,
2013-11-12 15:23:00,87.0,30.0,-100.00,NNW,331,13.0,18.0,13,0.00,,,0.00,303.000000,,2013-11-12 23:23:00,
2013-11-12 15:54:00,86.0,29.0,-100.00,NNW,328,12.0,18.0,13,0.00,,,0.00,171.000000,,2013-11-12 23:54:00,
2013-11-12 16:02:00,86.0,29.0,-100.00,NNW,328,12.0,18.0,13,0.00,,,0.00,171.000000,,2013-11-13 00:02:00,
2013-11-12 16:11:00,86.0,29.0,-100.00,NNW,328,12.0,18.0,13,0.00,,,0.00,171.000000,,2013-11-13 00:11:00,
2013-11-12 16:22:00,86.0,29.0,-100.00,NNW,328,12.0,18.0,13,0.00,,,0.00,171.000000,,2013-11-13 00:22:00,
2013-11-12 16:52:00,85.0,29.0,-100.00,North,0,10.0,18.0,13,0.00,,,0.00,64.000000,,2013-11-13 00:52:00,
2013-11-12 17:01:00,85.0,29.0,-100.00,North,0,10.0,18.0,13,0.00,,,0.00,64.000000,,2013-11-13 01:01:00,
2013-11-12 17:11:00,85.0,29.0,-100.00,North,0,10.0,18.0,13,0.00,,,0.00,64.000000,,2013-11-13 01:11:00,
2013-11-12 17:22:00,85.0,29.0,-100.00,North,0,10.0,18.0,13,0.00,,,0.00,64.000000,,2013-11-13 01:22:00,
2013-11-12 17:52:00,84.0,26.0,-100.00,North,0,11.0,17.0,12,0.00,,,0.00,2.000000,,2013-11-13 01:52:00,
2013-11-12 18:01:00,84.0,26.0,-100.00,North,0,11.0,17.0,12,0.00,,,0.00,2.000000,,2013-11-13 02:01:00,
2013-11-12 18:11:00,84.0,26.0,-100.00,North,0,11.0,17.0,12,0.00,,,0.00,2.000000,,2013-11-13 02:11:00,
2013-11-12 18:22:00,84.0,26.0,-100.00,North,0,11.0,17.0,12,0.00,,,0.00,2.000000,,2013-11-13 02:22:00,
2013-11-12 18:52:00,84.0,26.0,-100.00,North,359,11.0,16.0,12,0.00,,,0.00,0.000000,,2013-11-13 02:52:00,
2013-11-12 19:02:00,84.0,26.0,-100.00,North,359,11.0,16.0,12,0.00,,,0.00,0.000000,,2013-11-13 03:02:00,
2013-11-12 19:11:00,84.0,26.0,-100.00,North,359,11.0,16.0,12,0.00,,,0.00,0.000000,,2013-11-13 03:11:00,
2013-11-12 19:22:00,84.0,26.0,-100.00,North,359,11.0,16.0,12,0.00,,,0.00,0.000000,,2013-11-13 03:22:00,
2013-11-12 19:54:00,81.0,27.0,-100.00,North,8,8.0,17.0,14,0.00,,,0.00,0.000000,,2013-11-13 03:54:00,
2013-11-12 20:04:00,81.0,27.0,-100.00,North,8,8.0,17.0,14,0.00,,,0.00,0.000000,,2013-11-13 04:04:00,
2013-11-12 20:14:00,81.0,27.0,-100.00,North,8,8.0,17.0,14,0.00,,,0.00,0.000000,,2013-11-13 04:14:00,
2013-11-12 20:23:00,81.0,27.0,-100.00,North,8,8.0,17.0,14,0.00,,,0.00,0.000000,,2013-11-13 04:23:00,
2013-11-12 20:53:00,79.0,27.0,-100.00,North,357,6.0,11.0,15,0.00,,,0.00,0.000000,,2013-11-13 04:53:00,
2013-11-12 21:03:00,79.0,27.0,-100.00,North,357,6.0,11.0,15,0.00,,,0.00,0.000000,,2013-11-13 05:03:00,
2013-11-12 21:13:00,79.0,27.0,-100.00,North,357,6.0,11.0,15,0.00,,,0.00,0.000000,,2013-11-13 05:13:00,
2013-11-12 21:23:00,79.0,27.0,-100.00,North,357,6.0,11.0,15,0.00,,,0.00,0.000000,,2013-11-13 05:23:00,
2013-11-12 21:53:00,80.0,28.0,-100.00,NNW,332,10.0,17.0,15,0.00,,,0.00,0.000000,,2013-11-13 05:53:00,
2013-11-12 22:03:00,80.0,28.0,-100.00,NNW,332,10.0,17.0,15,0.00,,,0.00,0.000000,,2013-11-13 06:03:00,
2013-11-12 22:13:00,80.0,28.0,-100.00,NNW,332,10.0,17.0,15,0.00,,,0.00,0.000000,,2013-11-13 06:13:00,
2013-11-12 22:22:00,80.0,28.0,-100.00,NNW,332,10.0,17.0,15,0.00,,,0.00,0.000000,,2013-11-13 06:22:00,
2013-11-12 22:52:00,80.0,25.0,-100.00,NNW,342,10.0,22.0,13,0.00,,,0.00,0.000000,,2013-11-13 06:52:00,
2013-11-12 23:02:00,80.0,25.0,-100.00,NNW,342,10.0,22.0,13,0.00,,,0.00,0.000000,,2013-11-13 07:02:00,
2013-11-12 23:11:00,80.0,25.0,-100.00,NNW,342,10.0,22.0,13,0.00,,,0.00,0.000000,,2013-11-13 07:11:00,
2013-11-12 23:21:00,80.0,25.0,-100.00,NNW,342,10.0,22.0,13,0.00,,,0.00,0.000000,,2013-11-13 07:21:00,
2013-11-12 23:52:00,77.0,27.0,-100.00,North,8,6.0,11.0,16,0.00,,,0.00,0.000000,,2013-11-13 07:52:00,